AXB001 VOMM-VOHS

Flight info

Callsign AXB001
Flight time 0h 52m
Altitude 36000
Route KAMGU2A KAMGU W20 LEDOB LEDOB8
Aircraft B738/M-SDE2E3FGHIRWXY/LB1

Departure

Time 2026-04-25 12:47
Airport Chennai International Airport (VOMM)

Arrival

Time 2026-04-25 13:40
Airport Rajiv Gandhi International Airport (VOHS)
Time Latitude Longitude Altitude Speed Heading
2026-04-25 12:21 12.98465 80.16600 50 ft 0 kts 159°
2026-04-25 12:23 12.98466 80.16600 54 ft 0 kts 159°
2026-04-25 12:37 12.98476 80.16596 50 ft 4 kts 158°
2026-04-25 12:37 12.98500 80.16587 51 ft 3 kts 165°
2026-04-25 12:38 12.98515 80.16584 49 ft 2 kts 197°
2026-04-25 12:38 12.98525 80.16590 50 ft 2 kts 240°
2026-04-25 12:38 12.98529 80.16601 49 ft 2 kts 248°
2026-04-25 12:38 12.98531 80.16604 54 ft 0 kts 248°
2026-04-25 12:41 12.98531 80.16603 54 ft 0 kts 248°
2026-04-25 12:41 12.98523 80.16583 48 ft 7 kts 249°
2026-04-25 12:42 12.98504 80.16534 53 ft 7 kts 249°
2026-04-25 12:42 12.98493 80.16502 54 ft 7 kts 250°
2026-04-25 12:42 12.98470 80.16439 52 ft 7 kts 249°
2026-04-25 12:42 12.98453 80.16393 51 ft 7 kts 249°
2026-04-25 12:43 12.98436 80.16348 50 ft 7 kts 249°
2026-04-25 12:43 12.98411 80.16278 50 ft 16 kts 251°
2026-04-25 12:43 12.98337 80.16067 49 ft 15 kts 248°
2026-04-25 12:44 12.98298 80.15968 50 ft 15 kts 248°
2026-04-25 12:44 12.98276 80.15914 52 ft 0 kts 248°
2026-04-25 12:44 12.98295 80.15870 53 ft 9 kts 304°
2026-04-25 12:45 12.98318 80.15810 49 ft 9 kts 288°
2026-04-25 12:45 12.98335 80.15748 52 ft 9 kts 286°
2026-04-25 12:45 12.98375 80.15600 53 ft 13 kts 285°
2026-04-25 12:46 12.98398 80.15512 55 ft 13 kts 285°
2026-04-25 12:46 12.98456 80.15459 51 ft 12 kts 11°
2026-04-25 12:46 12.98493 80.15507 53 ft 2 kts 68°
2026-04-25 12:46 12.98510 80.15551 54 ft 27 kts 69°
2026-04-25 12:47 12.98669 80.15976 53 ft 98 kts 69°
2026-04-25 12:47 12.98989 80.16834 52 ft 156 kts 70°
2026-04-25 12:47 12.99421 80.18001 254 ft 188 kts 73°
2026-04-25 12:47 12.99888 80.19295 782 ft 206 kts 71°
2026-04-25 12:48 13.00702 80.20523 1357 ft 217 kts 46°
2026-04-25 12:48 13.02002 80.21409 1732 ft 234 kts 26°
2026-04-25 12:48 13.03594 80.21871 2172 ft 244 kts
2026-04-25 12:48 13.05326 80.21546 2386 ft 267 kts 332°
2026-04-25 12:49 13.06976 80.20532 2795 ft 281 kts 329°
2026-04-25 12:49 13.08705 80.19565 3392 ft 285 kts 334°
2026-04-25 12:49 13.10517 80.18718 4108 ft 283 kts 338°
2026-04-25 12:49 13.12357 80.17976 4780 ft 286 kts 342°
2026-04-25 12:50 13.14209 80.17311 5435 ft 279 kts 343°
2026-04-25 12:50 13.16049 80.16691 5763 ft 277 kts 345°
2026-04-25 12:50 13.17878 80.16091 5800 ft 274 kts 345°
2026-04-25 12:50 13.19699 80.15499 5822 ft 274 kts 346°
2026-04-25 12:51 13.21547 80.15003 5823 ft 277 kts 355°
2026-04-25 12:51 13.23474 80.14901 5831 ft 277 kts
2026-04-25 12:51 13.25374 80.14828 5822 ft 275 kts 359°
2026-04-25 12:51 13.27285 80.14731 5815 ft 275 kts 360°
2026-04-25 12:52 13.29189 80.14624 5813 ft 273 kts 359°
2026-04-25 12:52 13.31083 80.14505 5814 ft 273 kts 356°
2026-04-25 12:52 13.32930 80.13992 5957 ft 279 kts 340°
2026-04-25 12:52 13.34724 80.13211 6577 ft 281 kts 339°
2026-04-25 12:53 13.36530 80.12408 7229 ft 283 kts 339°
2026-04-25 12:53 13.38331 80.11606 7988 ft 282 kts 339°
2026-04-25 12:53 13.40133 80.10808 8724 ft 283 kts 340°
2026-04-25 12:53 13.41951 80.10007 9430 ft 286 kts 340°
2026-04-25 12:54 13.43792 80.09200 10097 ft 291 kts 340°
2026-04-25 12:54 13.45697 80.08369 10594 ft 301 kts 340°
2026-04-25 12:54 13.47639 80.07523 11255 ft 305 kts 340°
2026-04-25 12:54 13.49598 80.06669 12002 ft 306 kts 340°
2026-04-25 12:55 13.51544 80.05822 12717 ft 310 kts 340°
2026-04-25 12:55 13.52871 80.05245 13200 ft 312 kts 340°
2026-04-25 12:55 13.55559 80.04076 14107 ft 317 kts 339°
2026-04-25 12:55 13.57607 80.03185 14740 ft 321 kts 340°
2026-04-25 12:56 13.59693 80.02279 15360 ft 327 kts 340°
2026-04-25 12:56 13.61816 80.01357 15905 ft 336 kts 338°
2026-04-25 12:56 13.63992 80.00411 16487 ft 342 kts 338°
2026-04-25 12:56 13.66168 79.99464 17106 ft 346 kts 338°
2026-04-25 12:57 13.68402 79.98491 17705 ft 353 kts 337°
2026-04-25 12:57 13.70700 79.97491 18191 ft 360 kts 337°
2026-04-25 12:57 13.73020 79.96482 18808 ft 362 kts 337°
2026-04-25 12:57 13.75352 79.95467 19330 ft 367 kts 337°
2026-04-25 12:58 13.77711 79.94440 20006 ft 366 kts 336°
2026-04-25 12:58 13.80056 79.93419 20682 ft 366 kts 336°
2026-04-25 12:58 13.82403 79.92397 21364 ft 366 kts 336°
2026-04-25 12:58 13.84766 79.91368 21787 ft 374 kts 336°
2026-04-25 12:59 13.87185 79.90314 22234 ft 380 kts 336°
2026-04-25 12:59 13.89625 79.89251 22833 ft 382 kts 336°
2026-04-25 12:59 13.92058 79.88191 23349 ft 385 kts 336°
2026-04-25 12:59 13.94538 79.87109 23810 ft 387 kts 336°
2026-04-25 13:00 13.97027 79.86024 24214 ft 392 kts 336°
2026-04-25 13:00 13.97873 79.85656 24353 ft 393 kts 336°
2026-04-25 13:00 14.01223 79.84196 25006 ft 394 kts 335°
2026-04-25 13:00 14.04621 79.82713 25526 ft 400 kts 335°
2026-04-25 13:01 14.07170 79.81600 25966 ft 403 kts 335°
2026-04-25 13:01 14.09759 79.80469 26391 ft 405 kts 335°
2026-04-25 13:01 14.12373 79.79327 26843 ft 408 kts 335°
2026-04-25 13:01 14.15006 79.78178 27189 ft 412 kts 335°
2026-04-25 13:02 14.17659 79.77018 27575 ft 416 kts 335°
2026-04-25 13:02 14.20330 79.75851 28014 ft 418 kts 335°
2026-04-25 13:02 14.23013 79.74679 28419 ft 420 kts 335°
2026-04-25 13:02 14.25719 79.73496 28813 ft 423 kts 334°
2026-04-25 13:03 14.28439 79.72306 29184 ft 426 kts 334°
2026-04-25 13:03 14.31176 79.71110 29564 ft 429 kts 334°
2026-04-25 13:03 14.33903 79.69916 29926 ft 431 kts 334°
2026-04-25 13:03 14.36677 79.68702 30222 ft 434 kts 334°
2026-04-25 13:04 14.39471 79.67479 30548 ft 437 kts 334°
2026-04-25 13:04 14.42276 79.66251 30864 ft 438 kts 334°
2026-04-25 13:04 14.45095 79.65017 31182 ft 441 kts 334°
2026-04-25 13:04 14.47926 79.63776 31483 ft 443 kts 334°
2026-04-25 13:05 14.50739 79.62544 31769 ft 445 kts 334°
2026-04-25 13:05 14.53638 79.61273 32060 ft 447 kts 334°
2026-04-25 13:05 14.56476 79.60028 32343 ft 449 kts 334°
2026-04-25 13:05 14.59359 79.58764 32622 ft 451 kts 334°
2026-04-25 13:06 14.62252 79.57495 32918 ft 452 kts 334°
2026-04-25 13:06 14.65152 79.56223 33198 ft 454 kts 334°
2026-04-25 13:06 14.68073 79.54940 33456 ft 456 kts 334°
2026-04-25 13:06 14.71005 79.53653 33718 ft 458 kts 333°
2026-04-25 13:07 14.73946 79.52361 33957 ft 460 kts 333°
2026-04-25 13:07 14.76894 79.51066 34207 ft 460 kts 333°
2026-04-25 13:07 14.79839 79.49772 34459 ft 461 kts 333°
2026-04-25 13:07 14.82798 79.48471 34700 ft 462 kts 333°
2026-04-25 13:08 14.85755 79.47170 34921 ft 463 kts 333°
2026-04-25 13:08 14.88685 79.45881 35134 ft 464 kts 333°
2026-04-25 13:08 14.91658 79.44573 35345 ft 465 kts 333°
2026-04-25 13:08 14.94651 79.43255 35555 ft 466 kts 333°
2026-04-25 13:09 14.97634 79.41942 35767 ft 467 kts 333°
2026-04-25 13:09 15.00624 79.40615 35793 ft 468 kts 333°
2026-04-25 13:09 15.06525 79.37974 35797 ft 461 kts 332°
2026-04-25 13:10 15.12371 79.35351 35810 ft 457 kts 332°
2026-04-25 13:10 15.18207 79.32731 35814 ft 456 kts 332°
2026-04-25 13:11 15.24037 79.30116 35811 ft 457 kts 332°
2026-04-25 13:11 15.29886 79.27491 35827 ft 457 kts 332°
2026-04-25 13:12 15.35688 79.24885 35820 ft 457 kts 332°
2026-04-25 13:12 15.39599 79.23128 35836 ft 457 kts 332°
2026-04-25 13:13 15.44469 79.20938 35509 ft 461 kts 332°
2026-04-25 13:13 15.47404 79.19620 35179 ft 456 kts 332°
2026-04-25 13:13 15.50311 79.18320 34768 ft 452 kts 332°
2026-04-25 13:13 15.53197 79.17032 34378 ft 449 kts 333°
2026-04-25 13:14 15.56018 79.15774 33967 ft 447 kts 333°
2026-04-25 13:14 15.58882 79.14496 33503 ft 445 kts 333°
2026-04-25 13:14 15.61716 79.13230 33075 ft 442 kts 333°
2026-04-25 13:14 15.64542 79.11966 32659 ft 439 kts 333°
2026-04-25 13:15 15.67337 79.10716 32255 ft 436 kts 333°
2026-04-25 13:15 15.70116 79.09472 31856 ft 433 kts 333°
2026-04-25 13:15 15.72874 79.08238 31463 ft 431 kts 333°
2026-04-25 13:15 15.75616 79.07010 31069 ft 428 kts 333°
2026-04-25 13:16 15.78347 79.05786 30693 ft 426 kts 333°
2026-04-25 13:16 15.81062 79.04569 30269 ft 425 kts 334°
2026-04-25 13:16 15.82858 79.03763 30017 ft 424 kts 334°
2026-04-25 13:16 15.86466 79.02146 29416 ft 421 kts 334°
2026-04-25 13:17 15.88243 79.01349 29139 ft 419 kts 334°
2026-04-25 13:17 15.90914 79.00151 28713 ft 415 kts 334°
2026-04-25 13:17 15.94416 78.98580 28179 ft 411 kts 334°
2026-04-25 13:17 15.97031 78.97407 27777 ft 408 kts 334°
2026-04-25 13:18 15.99621 78.96244 27390 ft 405 kts 334°
2026-04-25 13:18 16.01367 78.95460 27125 ft 403 kts 334°
2026-04-25 13:18 16.03905 78.94320 26735 ft 401 kts 334°
2026-04-25 13:18 16.06455 78.93173 26362 ft 398 kts 334°
2026-04-25 13:19 16.09002 78.92029 25970 ft 396 kts 334°
2026-04-25 13:19 16.11522 78.90896 25588 ft 394 kts 334°
2026-04-25 13:19 16.14038 78.89764 25179 ft 392 kts 334°
2026-04-25 13:19 16.15693 78.89019 24934 ft 391 kts 334°
2026-04-25 13:20 16.19032 78.87517 24384 ft 389 kts 334°
2026-04-25 13:20 16.21518 78.86397 24000 ft 388 kts 334°
2026-04-25 13:20 16.23997 78.85281 23595 ft 387 kts 334°
2026-04-25 13:20 16.26465 78.84169 23142 ft 386 kts 334°
2026-04-25 13:21 16.28930 78.83059 22716 ft 384 kts 334°
2026-04-25 13:21 16.31344 78.81971 22328 ft 381 kts 334°
2026-04-25 13:21 16.33768 78.80879 21924 ft 378 kts 334°
2026-04-25 13:21 16.36173 78.79795 21531 ft 375 kts 334°
2026-04-25 13:22 16.38569 78.78714 21139 ft 373 kts 334°
2026-04-25 13:22 16.40938 78.77646 20757 ft 370 kts 334°
2026-04-25 13:22 16.43294 78.76582 20361 ft 368 kts 334°
2026-04-25 13:23 16.44539 78.76020 20148 ft 367 kts 334°
2026-04-25 13:23 16.46847 78.74978 19768 ft 365 kts 334°
2026-04-25 13:23 16.49169 78.73929 19379 ft 363 kts 335°
2026-04-25 13:23 16.51481 78.72885 18990 ft 361 kts 335°
2026-04-25 13:24 16.53788 78.71843 18603 ft 359 kts 335°
2026-04-25 13:24 16.56077 78.70808 18222 ft 357 kts 335°
2026-04-25 13:24 16.58360 78.69776 17796 ft 355 kts 335°
2026-04-25 13:24 16.60618 78.68756 17414 ft 352 kts 335°
2026-04-25 13:25 16.62833 78.67756 17030 ft 347 kts 334°
2026-04-25 13:25 16.65013 78.66773 16645 ft 336 kts 335°
2026-04-25 13:25 16.67144 78.65811 16301 ft 332 kts 335°
2026-04-25 13:25 16.69262 78.64856 15950 ft 330 kts 336°
2026-04-25 13:26 16.71373 78.63903 15594 ft 329 kts 336°
2026-04-25 13:26 16.73468 78.62956 15256 ft 327 kts 335°
2026-04-25 13:26 16.75555 78.62013 14908 ft 326 kts 336°
2026-04-25 13:26 16.77634 78.61074 14566 ft 324 kts 336°
2026-04-25 13:27 16.79707 78.60136 14194 ft 324 kts 336°
2026-04-25 13:27 16.81769 78.59204 13848 ft 323 kts 336°
2026-04-25 13:27 16.83828 78.58273 13480 ft 322 kts 337°
2026-04-25 13:27 16.85860 78.57354 13119 ft 321 kts 337°
2026-04-25 13:28 16.87902 78.56430 12773 ft 319 kts 337°
2026-04-25 13:28 16.89274 78.55809 12539 ft 318 kts 337°
2026-04-25 13:28 16.91961 78.54592 12072 ft 316 kts 338°
2026-04-25 13:28 16.93974 78.53681 11748 ft 315 kts 338°
2026-04-25 13:29 16.95982 78.52772 11390 ft 314 kts 338°
2026-04-25 13:29 16.97985 78.51865 11060 ft 313 kts 338°
2026-04-25 13:29 16.99977 78.50963 10723 ft 312 kts 338°
2026-04-25 13:30 17.03939 78.49159 10138 ft 308 kts 338°
2026-04-25 13:30 17.05881 78.48274 10001 ft 301 kts 338°
2026-04-25 13:30 17.07787 78.47405 9829 ft 294 kts 338°
2026-04-25 13:31 17.11494 78.45717 9179 ft 292 kts 337°
2026-04-25 13:31 17.13159 78.44528 8805 ft 290 kts 312°
2026-04-25 13:31 17.14112 78.42709 8540 ft 283 kts 287°
2026-04-25 13:31 17.14344 78.40683 8289 ft 281 kts 270°
2026-04-25 13:32 17.14288 78.38649 8025 ft 279 kts 268°
2026-04-25 13:32 17.14223 78.36624 7744 ft 279 kts 268°
2026-04-25 13:32 17.14168 78.34601 7478 ft 278 kts 269°
2026-04-25 13:32 17.14119 78.32603 7348 ft 271 kts 269°
2026-04-25 13:33 17.14075 78.30651 7212 ft 265 kts 269°
2026-04-25 13:33 17.14036 78.28782 7102 ft 258 kts 269°
2026-04-25 13:33 17.13997 78.26934 6997 ft 250 kts 269°
2026-04-25 13:33 17.13971 78.25716 6912 ft 245 kts 269°
2026-04-25 13:34 17.13970 78.23355 6700 ft 247 kts 279°
2026-04-25 13:34 17.14690 78.21768 6450 ft 243 kts 316°
2026-04-25 13:34 17.16097 78.20873 6213 ft 236 kts 347°
2026-04-25 13:34 17.17695 78.20729 6003 ft 228 kts
2026-04-25 13:35 17.19255 78.20901 5723 ft 223 kts
2026-04-25 13:35 17.20761 78.21190 5471 ft 216 kts 24°
2026-04-25 13:35 17.21813 78.22152 5311 ft 202 kts 67°
2026-04-25 13:35 17.22175 78.23536 5119 ft 195 kts 79°
2026-04-25 13:36 17.22404 78.24922 4880 ft 192 kts 82°
2026-04-25 13:36 17.22581 78.26301 4651 ft 191 kts 85°
2026-04-25 13:36 17.22667 78.27686 4400 ft 191 kts 89°
2026-04-25 13:36 17.22699 78.29083 4151 ft 193 kts 89°
2026-04-25 13:37 17.22717 78.30457 3933 ft 188 kts 89°
2026-04-25 13:37 17.22734 78.31811 3689 ft 184 kts 90°
2026-04-25 13:37 17.22751 78.33126 3454 ft 177 kts 89°
2026-04-25 13:37 17.22766 78.34358 3288 ft 159 kts 89°
2026-04-25 13:38 17.22781 78.35457 3085 ft 144 kts 90°
2026-04-25 13:38 17.22795 78.36505 2893 ft 144 kts 90°
2026-04-25 13:38 17.22809 78.37563 2713 ft 145 kts 89°
2026-04-25 13:38 17.22854 78.38609 2592 ft 142 kts 88°
2026-04-25 13:39 17.22855 78.39648 2486 ft 143 kts 95°
2026-04-25 13:39 17.22818 78.40646 2245 ft 131 kts 91°
2026-04-25 13:39 17.22873 78.41553 2001 ft 117 kts 89°
2026-04-25 13:39 17.22872 78.42301 1978 ft 84 kts 89°
2026-04-25 13:40 17.22883 78.42714 1982 ft 38 kts 82°
2026-04-25 13:40 17.22959 78.42920 1979 ft 20 kts 59°
2026-04-25 13:40 17.22992 78.42977 1982 ft 0 kts 58°
2026-04-25 13:41 17.22993 78.42978 1982 ft 1 kts 58°
2026-04-25 13:41 17.23015 78.43015 1979 ft 10 kts 58°
2026-04-25 13:42 17.23051 78.43077 1981 ft 10 kts 58°
2026-04-25 13:42 17.23086 78.43137 1979 ft 10 kts 54°
2026-04-25 13:42 17.23144 78.43162 1978 ft 5 kts
2026-04-25 13:42 17.23167 78.43163 1979 ft 3 kts
2026-04-25 13:43 17.23191 78.43162 1981 ft 3 kts 359°
2026-04-25 13:43 17.23218 78.43162 1980 ft 4 kts 359°
2026-04-25 13:43 17.23254 78.43161 1979 ft 6 kts 359°
2026-04-25 13:43 17.23300 78.43161 1981 ft 7 kts 359°
2026-04-25 13:44 17.23336 78.43159 1980 ft 1 kts 336°
2026-04-25 13:44 17.23336 78.43148 1981 ft 3 kts 266°
2026-04-25 13:44 17.23333 78.43116 1980 ft 5 kts 268°
2026-04-25 13:44 17.23332 78.43081 1979 ft 5 kts 268°
2026-04-25 13:45 17.23334 78.43046 1979 ft 5 kts 282°
2026-04-25 13:45 17.23363 78.43032 1979 ft 5 kts 358°
2026-04-25 13:45 17.23372 78.43032 1980 ft 0 kts 359°
2026-04-25 13:45 17.23381 78.43032 1981 ft 5 kts 359°
2026-04-25 13:46 17.23404 78.43031 1981 ft 0 kts 359°